| time (UTC) | temp C | wind direction | speed KPH | gust KPH | rain 1hr cm | rain 24hr cm | rain mn cm | humidity % | barometer mb |
| 20260507232034 | 10 | 244 | 3.2 | 9.7 | 0.00 | 0.00 | 0.00 | 82 | 1008.4 |
| 20260507231604 | 10 | 256 | 3.2 | 9.7 | 0.00 | 0.00 | 0.00 | 82 | 1008.4 |
| 20260507230014 | 10 | 236 | 3.2 | 16.1 | 0.00 | 0.00 | 0.00 | 82 | 1008.4 |
| 20260507225534 | 10 | 311 | 3.2 | 16.1 | 0.00 | 0.00 | 0.00 | 82 | 1008.4 |
| 20260507225024 | 10 | 262 | 4.8 | 16.1 | 0.00 | 0.00 | 0.00 | 82 | 1008.4 |
| 20260507224522 | 10 | 249 | 4.8 | 19.3 | 0.00 | 0.00 | 0.00 | 82 | 1008.4 |
| 20260507224013 | 10 | 222 | 3.2 | 19.3 | 0.00 | 0.00 | 0.00 | 82 | 1008.5 |
| 20260507223119 | 10 | 265 | 4.8 | 19.3 | 0.00 | 0.00 | 0.00 | 80 | 1008.6 |
| 20260507222518 | 10 | 339 | 3.2 | 11.3 | 0.00 | 0.00 | 0.00 | 81 | 1008.6 |
| 20260507221016 | 10 | 261 | 3.2 | 11.3 | 0.00 | 0.00 | 0.00 | 81 | 1008.5 |
| 20260507220516 | 10 | 225 | 3.2 | 11.3 | 0.00 | 0.00 | 0.00 | 81 | 1008.5 |
| 20260507220132 | 10 | 210 | 3.2 | 20.9 | 0.00 | 0.00 | 0.00 | 80 | 1008.6 |
| 20260507215516 | 10 | 252 | 3.2 | 20.9 | 0.00 | 0.00 | 0.00 | 80 | 1008.6 |
| 20260507215011 | 10 | 216 | 4.8 | 20.9 | 0.00 | 0.00 | 0.00 | 80 | 1008.7 |
| 20260507214513 | 10 | 231 | 4.8 | 14.5 | 0.00 | 0.00 | 0.00 | 79 | 1008.7 |
| 20260507213515 | 10 | 259 | 4.8 | 16.1 | 0.00 | 0.00 | 0.00 | 79 | 1008.8 |
| 20260507213011 | 10 | 237 | 4.8 | 14.5 | 0.00 | 0.00 | 0.00 | 79 | 1008.8 |
| 20260507212519 | 10 | 232 | 3.2 | 11.3 | 0.00 | 0.00 | 0.00 | 80 | 1008.8 |
| 20260507212010 | 10 | 228 | 3.2 | 11.3 | 0.00 | 0.00 | 0.00 | 80 | 1008.8 |
| 20260507211519 | 10 | 219 | 3.2 | 11.3 | 0.00 | 0.00 | 0.00 | 80 | 1008.9 |
| 20260507211009 | 10 | 265 | 1.6 | 9.7 | 0.00 | 0.00 | 0.00 | 80 | 1008.8 |
| 20260507210531 | 10 | 223 | 1.6 | 9.7 | 0.00 | 0.00 | 0.00 | 80 | 1008.8 |
| 20260507210013 | 10 | 276 | 3.2 | 9.7 | 0.00 | 0.00 | 0.00 | 80 | 1008.8 |
| 20260507205511 | 10 | 198 | 1.6 | 11.3 | 0.00 | 0.00 | 0.00 | 79 | 1008.7 |
| 20260507204513 | 10 | 197 | 4.8 | 12.9 | 0.00 | 0.00 | 0.00 | 79 | 1008.5 |
| 20260507203019 | 10 | 182 | 4.8 | 24.1 | 0.00 | 0.00 | 0.00 | 78 | 1008.3 |
| 20260507202525 | 10 | 242 | 6.4 | 24.1 | 0.00 | 0.00 | 0.00 | 77 | 1008.2 |
| 20260507202016 | 10 | 153 | 3.2 | 24.1 | 0.00 | 0.00 | 0.00 | 76 | 1008.2 |
| 20260507201010 | 11 | 235 | 6.4 | 16.1 | 0.00 | 0.00 | 0.00 | 75 | 1008.1 |
| 20260507200512 | 11 | 285 | 3.2 | 19.3 | 0.00 | 0.00 | 0.00 | 73 | 1008.1 |
| 20260507200007 | 11 | 219 | 3.2 | 19.3 | 0.00 | 0.00 | 0.00 | 72 | 1008.1 |
| 20260507195508 | 11 | 253 | 4.8 | 24.1 | 0.00 | 0.00 | 0.00 | 71 | 1008.1 |
| 20260507195009 | 11 | 248 | 3.2 | 24.1 | 0.00 | 0.00 | 0.00 | 70 | 1008.1 |
| 20260507194509 | 12 | 219 | 8.0 | 24.1 | 0.00 | 0.00 | 0.00 | 69 | 1008.1 |
| 20260507194008 | 12 | 242 | 4.8 | 20.9 | 0.00 | 0.00 | 0.00 | 69 | 1008.1 |
| 20260507193509 | 12 | 245 | 8.0 | 25.7 | 0.00 | 0.00 | 0.00 | 68 | 1008.1 |
| 20260507193009 | 12 | 244 | 8.0 | 25.7 | 0.00 | 0.00 | 0.00 | 68 | 1008.0 |
| 20260507192507 | 12 | 254 | 11.3 | 25.7 | 0.00 | 0.00 | 0.00 | 67 | 1008.0 |
| 20260507192009 | 12 | 247 | 8.0 | 25.7 | 0.00 | 0.00 | 0.00 | 65 | 1008.0 |
| 20260507191508 | 12 | 262 | 4.8 | 16.1 | 0.00 | 0.00 | 0.00 | 65 | 1008.0 |
| 20260507191007 | 12 | 275 | 6.4 | 19.3 | 0.00 | 0.00 | 0.00 | 64 | 1007.9 |
| 20260507190506 | 12 | 272 | 8.0 | 20.9 | 0.00 | 0.00 | 0.00 | 63 | 1007.9 |
| 20260507190007 | 13 | 259 | 8.0 | 20.9 | 0.00 | 0.00 | 0.00 | 62 | 1008.0 |
| 20260507185506 | 13 | 252 | 4.8 | 20.9 | 0.00 | 0.00 | 0.00 | 61 | 1007.9 |
| 20260507185007 | 13 | 250 | 8.0 | 32.2 | 0.00 | 0.00 | 0.00 | 61 | 1007.9 |
| 20260507184506 | 13 | 248 | 8.0 | 32.2 | 0.00 | 0.00 | 0.00 | 61 | 1007.8 |
| 20260507184008 | 13 | 244 | 6.4 | 32.2 | 0.00 | 0.00 | 0.00 | 62 | 1007.6 |
| 20260507182509 | 13 | 257 | 4.8 | 19.3 | 0.00 | 0.00 | 0.00 | 60 | 1007.5 |
| 20260507182008 | 13 | 252 | 8.0 | 19.3 | 0.00 | 0.00 | 0.00 | 60 | 1007.4 |
| 20260507181507 | 13 | 273 | 3.2 | 20.9 | 0.00 | 0.00 | 0.00 | 61 | 1007.5 |
| 20260507180507 | 14 | 239 | 11.3 | 32.2 | 0.00 | 0.00 | 0.00 | 58 | 1007.5 |
| 20260507180008 | 14 | 262 | 8.0 | 24.1 | 0.00 | 0.00 | 0.00 | 58 | 1007.5 |
| 20260507175507 | 13 | 259 | 9.7 | 24.1 | 0.00 | 0.05 | 0.00 | 58 | 1007.6 |
| 20260507175008 | 13 | 247 | 9.7 | 29.0 | 0.00 | 0.05 | 0.00 | 57 | 1007.6 |
| 20260507174511 | 13 | 235 | 8.0 | 29.0 | 0.00 | 0.05 | 0.00 | 57 | 1007.6 |
| 20260507173506 | 14 | 260 | 3.2 | 20.9 | 0.00 | 0.05 | 0.00 | 56 | 1007.5 |
| 20260507173008 | 15 | 302 | 8.0 | 20.9 | 0.00 | 0.05 | 0.00 | 56 | 1007.5 |
| 20260507172506 | 15 | 266 | 3.2 | 19.3 | 0.00 | 0.05 | 0.00 | 55 | 1007.6 |
| 20260507172008 | 15 | 230 | 4.8 | 19.3 | 0.00 | 0.05 | 0.00 | 56 | 1007.6 |
| 20260507171506 | 15 | 254 | 6.4 | 22.5 | 0.00 | 0.05 | 0.00 | 55 | 1007.6 |
| 20260507171007 | 15 | 249 | 4.8 | 22.5 | 0.00 | 0.05 | 0.00 | 56 | 1007.6 |
| 20260507170506 | 14 | 254 | 8.0 | 22.5 | 0.00 | 0.05 | 0.00 | 56 | 1007.6 |
| 20260507170006 | 14 | 257 | 6.4 | 19.3 | 0.00 | 0.05 | 0.00 | 56 | 1007.7 |
| 20260507165506 | 14 | 239 | 4.8 | 19.3 | 0.00 | 0.05 | 0.00 | 57 | 1007.7 |
| 20260507165007 | 14 | 253 | 8.0 | 19.3 | 0.00 | 0.13 | 0.00 | 56 | 1007.7 |
| 20260507164506 | 14 | 257 | 4.8 | 20.9 | 0.00 | 0.13 | 0.00 | 55 | 1007.7 |
| 20260507164008 | 14 | 256 | 8.0 | 20.9 | 0.00 | 0.13 | 0.00 | 55 | 1007.7 |
| 20260507163506 | 15 | 256 | 3.2 | 20.9 | 0.00 | 0.13 | 0.00 | 55 | 1007.8 |
| 20260507163007 | 14 | 259 | 9.7 | 25.7 | 0.00 | 0.13 | 0.00 | 54 | 1007.8 |
| 20260507162507 | 15 | 262 | 9.7 | 25.7 | 0.00 | 0.13 | 0.00 | 53 | 1007.8 |
| 20260507161506 | 14 | 265 | 8.0 | 29.0 | 0.00 | 0.13 | 0.00 | 56 | 1007.8 |
| 20260507160506 | 14 | 251 | 11.3 | 19.3 | 0.00 | 0.13 | 0.00 | 55 | 1007.8 |
| 20260507160006 | 14 | 250 | 8.0 | 22.5 | 0.00 | 0.13 | 0.00 | 56 | 1007.8 |
| 20260507155507 | 14 | 261 | 9.7 | 29.0 | 0.00 | 0.13 | 0.00 | 55 | 1007.8 |
| 20260507155006 | 14 | 254 | 9.7 | 29.0 | 0.00 | 0.13 | 0.00 | 55 | 1007.7 |
| 20260507154506 | 14 | 257 | 8.0 | 25.7 | 0.00 | 0.13 | 0.00 | 55 | 1007.8 |
| 20260507154009 | 14 | 266 | 8.0 | 24.1 | 0.00 | 0.13 | 0.00 | 55 | 1007.8 |
| 20260507153506 | 14 | 259 | 12.9 | 25.7 | 0.00 | 0.13 | 0.00 | 54 | 1007.8 |
| 20260507153007 | 14 | 234 | 9.7 | 25.7 | 0.00 | 0.13 | 0.00 | 54 | 1008.0 |
| 20260507152506 | 14 | 265 | 8.0 | 33.8 | 0.00 | 0.13 | 0.00 | 56 | 1007.8 |
| 20260507152007 | 14 | 260 | 11.3 | 33.8 | 0.00 | 0.13 | 0.00 | 54 | 1007.8 |
| 20260507151506 | 15 | 265 | 8.0 | 32.2 | 0.00 | 0.13 | 0.00 | 55 | 1007.9 |
| 20260507150507 | 15 | 260 | 9.7 | 24.1 | 0.00 | 0.13 | 0.00 | 55 | 1007.8 |
| 20260507145506 | 14 | 250 | 9.7 | 19.3 | 0.00 | 0.13 | 0.00 | 56 | 1007.9 |
| 20260507144506 | 14 | 268 | 11.3 | 25.7 | 0.00 | 0.13 | 0.00 | 57 | 1008.0 |
| 20260507144007 | 14 | 184 | 4.8 | 25.7 | 0.00 | 0.13 | 0.00 | 57 | 1008.0 |
| 20260507143506 | 14 | 213 | 12.9 | 25.7 | 0.00 | 0.13 | 0.00 | 56 | 1007.9 |
| 20260507143006 | 14 | 270 | 8.0 | 19.3 | 0.00 | 0.13 | 0.00 | 61 | 1008.0 |
| 20260507142007 | 14 | 193 | 4.8 | 24.1 | 0.00 | 0.13 | 0.00 | 64 | 1008.0 |
| 20260507141506 | 14 | 135 | 4.8 | 29.0 | 0.00 | 0.13 | 0.00 | 63 | 1008.1 |
| 20260507141007 | 14 | 230 | 8.0 | 32.2 | 0.00 | 0.13 | 0.00 | 60 | 1008.2 |
| 20260507140506 | 14 | 233 | 8.0 | 32.2 | 0.00 | 0.13 | 0.00 | 62 | 1008.2 |
| 20260507140011 | 14 | 232 | 8.0 | 32.2 | 0.00 | 0.13 | 0.00 | 62 | 1008.2 |
| 20260507135506 | 15 | 249 | 9.7 | 24.1 | 0.00 | 0.13 | 0.00 | 62 | 1008.2 |
| 20260507135007 | 14 | 257 | 8.0 | 24.1 | 0.00 | 0.13 | 0.00 | 61 | 1008.3 |
| 20260507134506 | 15 | 260 | 8.0 | 24.1 | 0.00 | 0.13 | 0.00 | 63 | 1008.3 |
| 20260507134007 | 13 | 217 | 8.0 | 19.3 | 0.00 | 0.13 | 0.00 | 65 | 1008.4 |
| 20260507133014 | 13 | 143 | 4.8 | 19.3 | 0.00 | 0.13 | 0.00 | 69 | 1008.8 |
| 20260507132506 | 13 | 173 | 4.8 | 16.1 | 0.00 | 0.13 | 0.00 | 73 | 1008.9 |
| 20260507132007 | 12 | 220 | 4.8 | 12.9 | 0.00 | 0.13 | 0.00 | 72 | 1009.0 |
| 20260507131507 | 12 | 263 | 3.2 | 14.5 | 0.00 | 0.13 | 0.00 | 73 | 1009.1 |
| 20260507131007 | 12 | 252 | 3.2 | 19.3 | 0.00 | 0.13 | 0.00 | 74 | 1009.1 |
| 20260507130507 | 12 | 240 | 8.0 | 19.3 | 0.00 | 0.13 | 0.00 | 73 | 1009.1 |
| 20260507130006 | 12 | 255 | 6.4 | 22.5 | 0.00 | 0.13 | 0.00 | 71 | 1009.1 |
| 20260507125509 | 12 | 241 | 8.0 | 22.5 | 0.00 | 0.13 | 0.00 | 70 | 1009.0 |
| 20260507125007 | 12 | 265 | 4.8 | 19.3 | 0.00 | 0.13 | 0.00 | 69 | 1009.0 |
| 20260507124007 | 12 | 271 | 4.8 | 20.9 | 0.00 | 0.13 | 0.00 | 70 | 1009.0 |
| 20260507123507 | 12 | 217 | 3.2 | 16.1 | 0.00 | 0.13 | 0.00 | 70 | 1009.0 |
| 20260507123007 | 12 | 216 | 4.8 | 20.9 | 0.00 | 0.13 | 0.00 | 69 | 1009.0 |
| 20260507122006 | 12 | 237 | 4.8 | 24.1 | 0.00 | 0.18 | 0.00 | 71 | 1009.0 |
| 20260507121006 | 12 | 240 | 4.8 | 14.5 | 0.00 | 0.18 | 0.00 | 72 | 1009.1 |
| 20260507120506 | 12 | 223 | 1.6 | 8.0 | 0.00 | 0.18 | 0.00 | 73 | 1009.1 |
| 20260507120006 | 12 | 239 | 3.2 | 8.0 | 0.00 | 0.18 | 0.00 | 73 | 1009.1 |
| 20260507114506 | 12 | 162 | 3.2 | 19.3 | 0.00 | 0.18 | 0.00 | 73 | 1009.3 |
| 20260507114007 | 12 | 107 | 4.8 | 19.3 | 0.00 | 0.18 | 0.00 | 70 | 1009.3 |
| 20260507113506 | 12 | 178 | 4.8 | 19.3 | 0.00 | 0.18 | 0.00 | 68 | 1009.1 |
| 20260507113007 | 12 | 244 | 3.2 | 19.3 | 0.00 | 0.18 | 0.00 | 69 | 1009.2 |
| 20260507112507 | 12 | 225 | 3.2 | 12.9 | 0.00 | 0.18 | 0.00 | 68 | 1009.1 |
| 20260507112007 | 12 | 159 | 6.4 | 20.9 | 0.00 | 0.18 | 0.00 | 68 | 1009.0 |
| 20260507111507 | 12 | 217 | 8.0 | 20.9 | 0.00 | 0.18 | 0.00 | 68 | 1009.0 |
| 20260507111007 | 12 | 212 | 4.8 | 19.3 | 0.00 | 0.18 | 0.00 | 69 | 1009.1 |
| 20260507110507 | 12 | 164 | 9.7 | 19.3 | 0.00 | 0.18 | 0.00 | 68 | 1009.1 |
| 20260507110008 | 12 | 220 | 8.0 | 16.1 | 0.00 | 0.18 | 0.00 | 67 | 1009.2 |
| 20260507105507 | 12 | 173 | 3.2 | 14.5 | 0.00 | 0.18 | 0.00 | 67 | 1009.1 |
| 20260507104507 | 12 | 229 | 6.4 | 20.9 | 0.00 | 0.18 | 0.00 | 69 | 1009.3 |
| 20260507104007 | 12 | 191 | 4.8 | 20.9 | 0.00 | 0.18 | 0.00 | 68 | 1009.3 |
| 20260507103006 | 12 | 107 | 4.8 | 19.3 | 0.00 | 0.18 | 0.00 | 68 | 1009.3 |
| 20260507102007 | 12 | 249 | 4.8 | 20.9 | 0.00 | 0.18 | 0.00 | 67 | 1009.2 |
| 20260507101507 | 12 | 268 | 4.8 | 22.5 | 0.00 | 0.18 | 0.00 | 68 | 1009.2 |
| 20260507101006 | 12 | 196 | 8.0 | 22.5 | 0.00 | 0.18 | 0.00 | 67 | 1009.1 |
| 20260507100506 | 12 | 185 | 8.0 | 22.5 | 0.00 | 0.18 | 0.00 | 68 | 1009.2 |
| 20260507100005 | 12 | 212 | 8.0 | 20.9 | 0.00 | 0.18 | 0.00 | 69 | 1009.2 |
| 20260507095506 | 11 | 270 | 6.4 | 24.1 | 0.00 | 0.18 | 0.00 | 70 | 1009.2 |
| 20260507095007 | 11 | 246 | 4.8 | 25.7 | 0.00 | 0.18 | 0.00 | 68 | 1009.3 |
| 20260507094006 | 11 | 222 | 6.4 | 19.3 | 0.00 | 0.18 | 0.00 | 69 | 1009.4 |
| 20260507093506 | 11 | 271 | 4.8 | 14.5 | 0.00 | 0.18 | 0.00 | 70 | 1009.5 |
| 20260507093007 | 11 | 238 | 3.2 | 14.5 | 0.00 | 0.18 | 0.00 | 71 | 1009.4 |
| 20260507092007 | 11 | 209 | 4.8 | 14.5 | 0.00 | 0.18 | 0.00 | 70 | 1009.3 |
| 20260507091506 | 11 | 182 | 4.8 | 20.9 | 0.00 | 0.18 | 0.00 | 70 | 1009.4 |
| 20260507091006 | 11 | 222 | 6.4 | 25.7 | 0.00 | 0.18 | 0.00 | 69 | 1009.4 |
| 20260507090507 | 11 | 226 | 4.8 | 25.7 | 0.00 | 0.18 | 0.00 | 70 | 1009.4 |
| 20260507090008 | 11 | 192 | 8.0 | 25.7 | 0.00 | 0.18 | 0.00 | 69 | 1009.4 |
| 20260507085509 | 11 | 297 | 3.2 | 14.5 | 0.00 | 0.18 | 0.00 | 70 | 1009.5 |
| 20260507085006 | 10 | 209 | 4.8 | 16.1 | 0.00 | 0.18 | 0.00 | 71 | 1009.5 |
| 20260507084505 | 10 | 235 | 6.4 | 19.3 | 0.00 | 0.18 | 0.00 | 70 | 1009.6 |
| 20260507084006 | 10 | 246 | 3.2 | 19.3 | 0.00 | 0.18 | 0.00 | 71 | 1009.6 |
| 20260507083507 | 10 | 192 | 8.0 | 19.3 | 0.00 | 0.18 | 0.00 | 70 | 1009.6 |
| 20260507083006 | 10 | 195 | 3.2 | 9.7 | 0.00 | 0.18 | 0.00 | 71 | 1009.6 |
| 20260507082514 | 10 | 215 | 0.0 | 4.8 | 0.00 | 0.18 | 0.00 | 71 | 1009.7 |
| 20260507082006 | 10 | 206 | 0.0 | 4.8 | 0.00 | 0.18 | 0.00 | 71 | 1009.7 |
| 20260507081506 | 10 | 197 | 0.0 | 4.8 | 0.00 | 0.18 | 0.00 | 70 | 1009.6 |
| 20260507081007 | 10 | 185 | 1.6 | 4.8 | 0.00 | 0.18 | 0.00 | 72 | 1009.7 |
| 20260507080506 | 10 | 164 | 1.6 | 9.7 | 0.00 | 0.18 | 0.00 | 71 | 1009.6 |
| 20260507080007 | 10 | 175 | 3.2 | 9.7 | 0.00 | 0.18 | 0.00 | 72 | 1009.7 |
| 20260507075506 | 10 | 146 | 0.0 | 4.8 | 0.00 | 0.18 | 0.00 | 73 | 1009.8 |
| 20260507075006 | 10 | 175 | 1.6 | 9.7 | 0.00 | 0.18 | 0.00 | 72 | 1009.8 |
| 20260507074507 | 9 | 119 | 1.6 | 9.7 | 0.00 | 0.18 | 0.00 | 72 | 1009.9 |
| 20260507074008 | 9 | 183 | 3.2 | 9.7 | 0.00 | 0.18 | 0.00 | 71 | 1009.9 |
| 20260507073506 | 9 | 214 | 3.2 | 8.0 | 0.00 | 0.18 | 0.00 | 72 | 1009.8 |
| 20260507073006 | 9 | 177 | 1.6 | 11.3 | 0.00 | 0.18 | 0.00 | 72 | 1009.9 |
| 20260507072507 | 9 | 201 | 4.8 | 11.3 | 0.00 | 0.18 | 0.00 | 72 | 1009.8 |
| 20260507072006 | 9 | 183 | 0.0 | 4.8 | 0.00 | 0.18 | 0.00 | 72 | 1009.8 |
| 20260507071507 | 9 | 214 | 0.0 | 12.9 | 0.00 | 0.18 | 0.00 | 71 | 1009.8 |
| 20260507071006 | 9 | 200 | 1.6 | 12.9 | 0.00 | 0.18 | 0.00 | 72 | 1009.8 |
| 20260507070010 | 8 | 152 | 0.0 | 8.0 | 0.00 | 0.18 | 0.00 | 73 | 1009.9 |
| 20260507065507 | 8 | 143 | 3.2 | 8.0 | 0.00 | 0.18 | 0.00 | 72 | 1009.8 |
| 20260507065006 | 8 | 144 | 1.6 | 8.0 | 0.00 | 0.18 | 0.00 | 72 | 1009.9 |
| 20260507064507 | 8 | 130 | 1.6 | 4.8 | 0.00 | 0.18 | 0.00 | 74 | 1009.9 |
| 20260507064007 | 8 | 110 | 1.6 | 11.3 | 0.00 | 0.18 | 0.00 | 74 | 1009.9 |
| 20260507063506 | 8 | 148 | 3.2 | 11.3 | 0.00 | 0.18 | 0.00 | 72 | 1009.9 |
| 20260507063007 | 8 | 135 | 1.6 | 4.8 | 0.00 | 0.18 | 0.00 | 74 | 1009.9 |
| 20260507062513 | 8 | 138 | 0.0 | 4.8 | 0.00 | 0.18 | 0.00 | 74 | 1010.0 |
| 20260507062006 | 8 | 143 | 0.0 | 4.8 | 0.00 | 0.18 | 0.00 | 73 | 1010.0 |
| 20260507061506 | 8 | 143 | 1.6 | 4.8 | 0.00 | 0.18 | 0.00 | 72 | 1010.1 |
| 20260507061006 | 8 | 191 | 0.0 | 4.8 | 0.00 | 0.18 | 0.00 | 72 | 1010.2 |
| 20260507055506 | 8 | 159 | 1.6 | 9.7 | 0.00 | 0.18 | 0.00 | 72 | 1010.1 |
| 20260507055006 | 8 | 177 | 1.6 | 9.7 | 0.00 | 0.18 | 0.00 | 72 | 1010.1 |
| 20260507054506 | 8 | 152 | 1.6 | 8.0 | 0.00 | 0.18 | 0.00 | 72 | 1010.1 |
| 20260507054006 | 8 | 180 | 1.6 | 9.7 | 0.00 | 0.18 | 0.00 | 72 | 1010.2 |
| 20260507053507 | 8 | 123 | 1.6 | 9.7 | 0.00 | 0.18 | 0.00 | 72 | 1010.2 |
| 20260507052513 | 8 | 196 | 1.6 | 11.3 | 0.00 | 0.18 | 0.00 | 72 | 1010.1 |
| 20260507051507 | 8 | 199 | 1.6 | 11.3 | 0.00 | 0.18 | 0.00 | 73 | 1010.2 |
| 20260507051006 | 8 | 196 | 3.2 | 11.3 | 0.00 | 0.18 | 0.00 | 74 | 1010.1 |
| 20260507050506 | 8 | 175 | 3.2 | 11.3 | 0.00 | 0.18 | 0.00 | 74 | 1010.2 |
| 20260507050006 | 8 | 126 | 1.6 | 4.8 | 0.00 | 0.18 | 0.00 | 74 | 1010.2 |
| 20260507045506 | 8 | 208 | 0.0 | 4.8 | 0.00 | 0.18 | 0.00 | 75 | 1010.2 |
| 20260507045006 | 8 | 166 | 0.0 | 4.8 | 0.00 | 0.18 | 0.00 | 74 | 1010.2 |
| 20260507044006 | 8 | 178 | 0.0 | 0.0 | 0.00 | 0.18 | 0.00 | 74 | 1010.3 |
| 20260507043506 | 8 | 178 | 0.0 | 3.2 | 0.00 | 0.18 | 0.00 | 73 | 1010.4 |
| 20260507043007 | 8 | 178 | 0.0 | 8.0 | 0.00 | 0.18 | 0.00 | 73 | 1010.4 |
| 20260507042006 | 8 | 219 | 3.2 | 9.7 | 0.00 | 0.18 | 0.00 | 73 | 1010.3 |
| 20260507041506 | 8 | 274 | 1.6 | 8.0 | 0.00 | 0.18 | 0.00 | 73 | 1010.4 |
| 20260507041006 | 8 | 265 | 3.2 | 11.3 | 0.00 | 0.18 | 0.00 | 73 | 1010.4 |
| 20260507040506 | 8 | 250 | 4.8 | 11.3 | 0.00 | 0.18 | 0.00 | 74 | 1010.4 |
| 20260507040006 | 7 | 268 | 1.6 | 14.5 | 0.00 | 0.18 | 0.00 | 75 | 1010.5 |
| 20260507035507 | 7 | 255 | 4.8 | 14.5 | 0.00 | 0.18 | 0.00 | 76 | 1010.5 |
| 20260507035006 | 7 | 243 | 3.2 | 14.5 | 0.00 | 0.18 | 0.00 | 78 | 1010.5 |
| 20260507034506 | 7 | 242 | 1.6 | 8.0 | 0.00 | 0.18 | 0.00 | 79 | 1010.6 |
| 20260507033006 | 7 | 298 | 0.0 | 4.8 | 0.00 | 0.18 | 0.00 | 81 | 1010.7 |
| 20260507032506 | 7 | 289 | 0.0 | 4.8 | 0.00 | 0.18 | 0.00 | 80 | 1010.6 |